WA6MHA-15 Weather Reports


Display with metric or nautical units.
time (UTC)temp
F
wind
direction
speed
MPH
gust
MPH
rain 1hr
in
rain 24hr
in
rain mn
in
humidity
%
barometer
mb
20200924180759 84 288 2.0 0.0 0.00 0.00 0.00 43
20200924180358 84 278 4.0 0.0 0.00 0.00 0.00 43
20200924175957 84 239 4.0 0.0 0.00 0.00 0.00 43
20200924175554 84 184 3.0 0.0 0.00 0.00 0.00 43
20200924175156 83 165 4.0 0.0 0.00 0.00 0.00 44
20200924173948 85 198 4.0 0.0 0.00 0.00 0.00 42
20200924171546 82 36 1.0 0.0 0.00 0.00 0.00 46
20200924170740 82 175 1.0 0.0 0.00 0.00 0.00 46
20200924165940 82 244 1.0 0.0 0.00 0.00 0.00 46
20200924163939 81 330 0.0 0.0 0.00 0.00 0.00 45
20200924163529 81 258 0.0 0.0 0.00 0.00 0.00 44
20200924163130 81 258 0.0 0.0 0.00 0.00 0.00 45
20200924161123 81 277 1.0 0.0 0.00 0.00 0.00 46
20200924160720 80 292 0.0 0.0 0.00 0.00 0.00 46
20200924155117 79 88 0.0 0.0 0.00 0.00 0.00 47
20200924154314 78 88 0.0 0.0 0.00 0.00 0.00 48
20200924153512 77 88 0.0 0.0 0.00 0.00 0.00 52
20200924153112 76 88 0.0 0.0 0.00 0.00 0.00 53
20200924152708 75 88 0.0 0.0 0.00 0.00 0.00 53
20200924151908 73 88 0.0 0.0 0.00 0.00 0.00 56
20200924151520 73 88 0.0 0.0 0.00 0.00 0.00 56
20200924150303 69 88 0.0 0.0 0.00 0.00 0.00 61
20200924145901 68 88 0.0 0.0 0.00 0.00 0.00 62
20200924145458 67 88 0.0 0.0 0.00 0.00 0.00 63
20200924145057 66 88 0.0 0.0 0.00 0.00 0.00 64
20200924144658 66 77 1.0 0.0 0.00 0.00 0.00 65
20200924144256 65 74 2.0 0.0 0.00 0.00 0.00 65
20200924143454 65 77 1.0 0.0 0.00 0.00 0.00 65
20200924142653 64 87 1.0 0.0 0.00 0.00 0.00 66
20200924142252 64 78 1.0 0.0 0.00 0.00 0.00 66
20200924141849 64 97 1.0 0.0 0.00 0.00 0.00 66
20200924140646 64 68 0.0 0.0 0.00 0.00 0.00 65
20200924135442 64 85 2.0 0.0 0.00 0.00 0.00 65
20200924135039 64 40 0.0 0.0 0.00 0.00 0.00 65
20200924134641 64 40 0.0 0.0 0.00 0.00 0.00 66
20200924133838 64 40 0.0 0.0 0.00 0.00 0.00 68
20200924133435 64 40 0.0 0.0 0.00 0.00 0.00 68
20200924132634 64 40 0.0 0.0 0.00 0.00 0.00 69
20200924132231 64 40 0.0 0.0 0.00 0.00 0.00 69
20200924131832 64 40 0.0 0.0 0.00 0.00 0.00 69
20200924131430 64 40 0.0 0.0 0.00 0.00 0.00 69
20200924131033 63 40 0.0 0.0 0.00 0.00 0.00 69
20200924130627 64 40 0.0 0.0 0.00 0.00 0.00 69
20200924130228 64 40 0.0 0.0 0.00 0.00 0.00 69
20200924125823 64 40 0.0 0.0 0.00 0.00 0.00 69
20200924125425 64 40 0.0 0.0 0.00 0.00 0.00 69
20200924124221 64 40 0.0 0.0 0.00 0.00 0.00 69
20200924122219 64 40 0.0 0.0 0.00 0.00 0.00 68
20200924121817 65 40 0.0 0.0 0.00 0.00 0.00 68
20200924121410 65 40 0.0 0.0 0.00 0.00 0.00 67
20200924121008 65 40 0.0 0.0 0.00 0.00 0.00 67
20200924120607 66 40 0.0 0.0 0.00 0.00 0.00 67
20200924115805 64 40 0.0 0.0 0.00 0.00 0.00 68
20200924115404 64 40 0.0 0.0 0.00 0.00 0.00 67
20200924115004 64 40 0.0 0.0 0.00 0.00 0.00 67
20200924114604 64 40 0.0 0.0 0.00 0.00 0.00 68
20200924114203 64 40 0.0 0.0 0.00 0.00 0.00 68
20200924113758 65 40 0.0 0.0 0.00 0.00 0.00 68
20200924111355 64 73 0.0 0.0 0.00 0.00 0.00 68
20200924110551 64 87 1.0 0.0 0.00 0.00 0.00 68
20200924110149 64 59 0.0 0.0 0.00 0.00 0.00 68
20200924104544 65 73 0.0 0.0 0.00 0.00 0.00 67
20200924104143 65 73 0.0 0.0 0.00 0.00 0.00 67
20200924103746 65 73 0.0 0.0 0.00 0.00 0.00 68
20200924102938 64 85 1.0 0.0 0.00 0.00 0.00 68
20200924102137 65 61 0.0 0.0 0.00 0.00 0.00 67
20200924101337 65 61 0.0 0.0 0.00 0.00 0.00 67
20200924095735 64 68 0.0 0.0 0.00 0.00 0.00 69
20200924094927 64 87 0.0 0.0 0.00 0.00 0.00 69
20200924093724 64 87 0.0 0.0 0.00 0.00 0.00 68
20200924092920 65 87 0.0 0.0 0.00 0.00 0.00 67
20200924092119 65 87 0.0 0.0 0.00 0.00 0.00 67
20200924091318 66 104 1.0 0.0 0.00 0.00 0.00 67
20200924090913 66 78 0.0 0.0 0.00 0.00 0.00 66
20200924090513 66 78 0.0 0.0 0.00 0.00 0.00 66
20200924090116 66 78 0.0 0.0 0.00 0.00 0.00 65
20200924085709 66 78 0.0 0.0 0.00 0.00 0.00 66
20200924085308 66 78 0.0 0.0 0.00 0.00 0.00 65
20200924084907 66 78 0.0 0.0 0.00 0.00 0.00 64
20200924084514 67 78 0.0 0.0 0.00 0.00 0.00 63
20200924083302 68 212 0.0 0.0 0.00 0.00 0.00 62
20200924082903 67 66 1.0 0.0 0.00 0.00 0.00 63
20200924082059 66 74 0.0 0.0 0.00 0.00 0.00 64
20200924081257 67 60 0.0 0.0 0.00 0.00 0.00 62
20200924080454 67 60 0.0 0.0 0.00 0.00 0.00 62
20200924080054 67 60 0.0 0.0 0.00 0.00 0.00 62
20200924075652 69 97 0.0 0.0 0.00 0.00 0.00 62
20200924074849 69 57 2.0 0.0 0.00 0.00 0.00 63
20200924073646 68 35 0.0 0.0 0.00 0.00 0.00 62
20200924073243 69 35 0.0 0.0 0.00 0.00 0.00 61
20200924072442 70 35 0.0 0.0 0.00 0.00 0.00 60
20200924072042 70 35 0.0 0.0 0.00 0.00 0.00 59
20200924071640 70 35 0.0 0.0 0.00 0.00 0.00 59
20200924071241 71 91 0.0 0.0 0.00 0.00 0.00 59
20200924070837 71 91 0.0 0.0 0.00 0.00 0.00 57
20200924070435 72 35 0.0 0.0 0.00 0.00 0.00 57
20200924070034 73 35 0.0 0.0 0.00 0.00 0.00 58
20200924065235 73 205 0.0 0.0 0.00 0.00 0.00 55
20200924064832 74 71 3.0 0.0 0.00 0.00 0.00 54
20200924064433 73 74 4.0 0.0 0.00 0.00 0.00 54
20200924064029 73 74 5.0 0.0 0.00 0.00 0.00 55
20200924063627 73 59 6.0 0.0 0.00 0.00 0.00 55
20200924062824 70 68 5.0 0.0 0.00 0.00 0.00 59
20200924062424 68 71 3.0 0.0 0.00 0.00 0.00 63
20200924062022 67 87 1.0 0.0 0.00 0.00 0.00 66
20200924060416 68 87 0.0 0.0 0.00 0.00 0.00 66
20200924060018 67 102 0.0 0.0 0.00 0.00 0.00 66
20200924055214 67 102 0.0 0.0 0.00 0.00 0.00 66
20200924054817 68 102 0.0 0.0 0.00 0.00 0.00 66
20200924054412 68 102 0.0 0.0 0.00 0.00 0.00 66
20200924054019 68 102 0.0 0.0 0.00 0.00 0.00 66
20200924053207 67 102 0.0 0.0 0.00 0.00 0.00 67
20200924052805 67 102 0.0 0.0 0.00 0.00 0.00 66
20200924052406 68 102 0.0 0.0 0.00 0.00 0.00 66
20200924051201 69 73 0.0 0.0 0.00 0.00 0.00 65
20200924050800 68 73 0.0 0.0 0.00 0.00 0.00 66
20200924045956 68 67 0.0 0.0 0.00 0.00 0.00 66
20200924045555 68 67 0.0 0.0 0.00 0.00 0.00 66
20200924045154 68 67 0.0 0.0 0.00 0.00 0.00 65
20200924044753 68 67 0.0 0.0 0.00 0.00 0.00 65
20200924043950 68 67 0.0 0.0 0.00 0.00 0.00 64
20200924043548 68 67 0.0 0.0 0.00 0.00 0.00 64
20200924043153 68 67 0.0 0.0 0.00 0.00 0.00 64
20200924042746 69 67 0.0 0.0 0.00 0.00 0.00 64
20200924042346 69 67 0.0 0.0 0.00 0.00 0.00 63
20200924041943 69 67 0.0 0.0 0.00 0.00 0.00 63
20200924040339 70 67 0.0 0.0 0.00 0.00 0.00 62
20200924034734 71 67 0.0 0.0 0.00 0.00 0.00 61
20200924034333 70 67 0.0 0.0 0.00 0.00 0.00 62
20200924033934 70 19 1.0 0.0 0.00 0.00 0.00 63
20200924033532 69 278 0.0 0.0 0.00 0.00 0.00 63
20200924032728 69 278 0.0 0.0 0.00 0.00 0.00 63
20200924031926 69 278 0.0 0.0 0.00 0.00 0.00 63
20200924031123 70 278 0.0 0.0 0.00 0.00 0.00 62
20200924030722 70 278 0.0 0.0 0.00 0.00 0.00 62
20200924025919 70 278 0.0 0.0 0.00 0.00 0.00 62
20200924025519 72 278 0.0 0.0 0.00 0.00 0.00 60
20200924025117 71 278 0.0 0.0 0.00 0.00 0.00 61
20200924024716 71 278 0.0 0.0 0.00 0.00 0.00 61
20200924024315 71 278 0.0 0.0 0.00 0.00 0.00 60
20200924023914 72 278 0.0 0.0 0.00 0.00 0.00 60
20200924023551 72 278 0.0 0.0 0.00 0.00 0.00 60
20200924023513 72 278 0.0 0.0 0.00 0.00 0.00 60
20200924022710 72 278 0.0 0.0 0.00 0.00 0.00 59
20200924022310 74 278 0.0 0.0 0.00 0.00 0.00 58
20200924021908 73 278 0.0 0.0 0.00 0.00 0.00 57
20200924021514 74 278 0.0 0.0 0.00 0.00 0.00 57
20200924021106 74 278 0.0 0.0 0.00 0.00 0.00 57
20200924020705 75 278 0.0 0.0 0.00 0.00 0.00 55
20200924020307 75 278 0.0 0.0 0.00 0.00 0.00 54
20200924015903 76 278 0.0 0.0 0.00 0.00 0.00 54
20200924015059 77 278 0.0 0.0 0.00 0.00 0.00 52
20200924014658 77 278 0.0 0.0 0.00 0.00 0.00 52
20200924014257 78 278 0.0 0.0 0.00 0.00 0.00 51
20200924013455 80 278 0.0 0.0 0.00 0.00 0.00 49
20200924013054 80 278 0.0 0.0 0.00 0.00 0.00 48
20200924012317 81 278 0.0 0.0 0.00 0.00 0.00 47
20200924011852 81 278 0.0 0.0 0.00 0.00 0.00 46
20200924011449 82 278 0.0 0.0 0.00 0.00 0.00 46
20200924011048 81 278 0.0 0.0 0.00 0.00 0.00 46
20200924010246 81 278 0.0 0.0 0.00 0.00 0.00 46
20200924005444 82 158 0.0 0.0 0.00 0.00 0.00 45
20200924005041 82 286 0.0 0.0 0.00 0.00 0.00 45
20200924003844 83 182 1.0 0.0 0.00 0.00 0.00 45
20200924003035 83 172 0.0 0.0 0.00 0.00 0.00 44
20200924002636 83 338 0.0 0.0 0.00 0.00 0.00 44
20200924001832 85 181 2.0 0.0 0.00 0.00 0.00 43
20200924001431 85 275 2.0 0.0 0.00 0.00 0.00 42
20200924001031 84 209 0.0 0.0 0.00 0.00 0.00 42
20200924000629 84 309 3.0 0.0 0.00 0.00 0.00 42
20200924000228 84 208 3.0 0.0 0.00 0.00 0.00 42
20200923235830 84 188 0.0 0.0 0.00 0.00 0.00 42
20200923235025 84 182 3.0 0.0 0.00 0.00 0.00 41
20200923234625 84 215 1.0 0.0 0.00 0.00 0.00 41
20200923234221 85 320 0.0 0.0 0.00 0.00 0.00 42
20200923233820 84 285 3.0 0.0 0.00 0.00 0.00 42
20200923233419 84 329 1.0 0.0 0.00 0.00 0.00 42
20200923232619 84 253 5.0 0.0 0.00 0.00 0.00 42
20200923232216 84 123 4.0 0.0 0.00 0.00 0.00 41
20200923231413 85 201 1.0 0.0 0.00 0.00 0.00 40
20200923231017 85 262 3.0 0.0 0.00 0.00 0.00 40
20200923230210 85 275 3.0 0.0 0.00 0.00 0.00 38
20200923224203 87 168 1.0 0.0 0.00 0.00 0.00 37
20200923223400 87 323 2.0 0.0 0.00 0.00 0.00 41
20200923223000 87 258 1.0 0.0 0.00 0.00 0.00 39
20200923222600 87 5 3.0 0.0 0.00 0.00 0.00 40
20200923221400 87 202 7.0 0.0 0.00 0.00 0.00 44
20200923220953 87 309 0.0 0.0 0.00 0.00 0.00 46
20200923220149 86 338 2.0 0.0 0.00 0.00 0.00 46
20200923215750 87 322 6.0 0.0 0.00 0.00 0.00 47
20200923214546 88 310 7.0 0.0 0.00 0.00 0.00 46
20200923212941 89 320 4.0 0.0 0.00 0.00 0.00 46
20200923212538 89 285 3.0 0.0 0.00 0.00 0.00 46
20200923212137 90 291 7.0 0.0 0.00 0.00 0.00 45
20200923211334 90 307 6.0 0.0 0.00 0.00 0.00 43
20200923210533 91 319 0.0 0.0 0.00 0.00 0.00 40
20200923210136 91 315 6.0 0.0 0.00 0.00 0.00 39
20200923205730 90 331 1.0 0.0 0.00 0.00 0.00 39
20200923203724 90 296 5.0 0.0 0.00 0.00 0.00 37
20200923202920 89 298 7.0 0.0 0.00 0.00 0.00 38
20200923202518 89 19 0.0 0.0 0.00 0.00 0.00 38
20200923201316 89 270 7.0 0.0 0.00 0.00 0.00 37
20200923200913 88 326 5.0 0.0 0.00 0.00 0.00 37
20200923200112 88 74 2.0 0.0 0.00 0.00 0.00 38
20200923194520 88 292 4.0 0.0 0.00 0.00 0.00 40
20200923193707 88 250 3.0 0.0 0.00 0.00 0.00 41
20200923193309 87 217 2.0 0.0 0.00 0.00 0.00 42
20200923192104 87 305 7.0 0.0 0.00 0.00 0.00 43
20200923191657 87 302 1.0 0.0 0.00 0.00 0.00 44
20200923191257 87 305 3.0 0.0 0.00 0.00 0.00 44
20200923190856 86 157 1.0 0.0 0.00 0.00 0.00 45
20200923190453 85 295 6.0 0.0 0.00 0.00 0.00 46
20200923190053 85 282 2.0 0.0 0.00 0.00 0.00 46
20200923184848 85 306 2.0 0.0 0.00 0.00 0.00 47
20200923184447 85 300 7.0 0.0 0.00 0.00 0.00 47
20200923183245 84 261 0.0 0.0 0.00 0.00 0.00 49
20200923182442 84 313 4.0 0.0 0.00 0.00 0.00 51
20200923182041 83 285 5.0 0.0 0.00 0.00 0.00 51
20200923181638 84 272 4.0 0.0 0.00 0.00 0.00 52